STARLINK-3845, 52541

Orbit data source: Space-Track

STARLINK-3845, 52541 is a payload satellite owned by SpaceX/Seattle (US) in LEO that was launched on Fri, 13 May 2022 UTC via an FALCON 9 launch vehicle from the Air Force Western Test Range (AFWTR). Payload-class satellites include a variety of spacecraft equipped with specific instruments for various scientific and technological missions. These include communications satellites like Starlink; space stations such as the ISS; scientific satellites like the Hubble; Earth observation satellites from companies like Planet Labs, Umbra, and HawkEye 360; GPS; miniature CubeSats for education and research; and military/defense satellites.

Loading next visibility...
Identifier
52541, 2022-051J
Orbit
LEO
Country
Flag of USUS
Related business
Manufacturer
SpaceX/Seattle
Mission
Operational Commercial Communications
Bus & Motor
STARLINK, Unknown motor
Mass
297 kg wet, ~275 kg dry
Launch date (UTC)
2022-05-13 (4 years ago)
Launch vehicle
FALCON 9
Launch site
Air Force Western Test Range (AFWTR)
Object type
Payload
Rocket body
Debris
Shape & HBR
Box + 1 Pan, 10.1 m
Radar Cross Section
13.562 m², Large (>1 m²)

Expand to show TLE details & history
Last TLE update: 2 days ago

TLE from 2 days ago
0 STARLINK-3845
1 52541U 22051J   26171.32469984  .00000255  00000-0  34133-4 0  9999
2 52541  53.1599  33.2607 0001167  86.4501 273.6624 15.08830926226867
Epoch: 2026-06-20T07:47Z
TLE epoch observation values (Epoch: 2026-06-20T07:47:34.066Z)
Latitude
Longitude
7.82781°
Altitude
540.611 km
Speed
7.593 km/s
True Right ascension
02h 13m 02s
True Declination
0° 00' 00"
Sunlit
Object was in daylight at epoch
Visualization orbit readout
Latitude
Unknown
Longitude
Unknown
Altitude
Unknown
Speed
Unknown
Apparent Right ascension
Unknown
Apparent Declination
Unknown
Sunlit
N/A
Visualization observer readout
Local Sidereal Time
21:31:11
Azimuth
Unknown
Elevation
Unknown
Doppler factor
Unknown
Orbital elements
Apogee altitude
540.833 km
Perigee altitude
539.218 km
Semi-major axis
6,918.162 km
Eccentricity
0.00012
Inclination
53.1599°
RAAN
33.2607°
Arg. of periapsis
86.4501°
True anomaly
273.64905°
Mean anomaly
273.6624°
Eccentric anomaly
273.65573°
Mean motion
3.77187 °/min
Orbital period
95.44 mins
BSTAR
0.000034133
Loading maneuver chart data...
Computing Atmospheric mass density...
Loading historical data...
Loading historical data...
Loading historical data...
Loading historical data...
Loading historical data...
Loading historical data...
Loading historical data...

Documentation

Showing up to 5 results
|